Погода в Москве

Погода в Москве : погода сейчас, прогноз погоды и архив. Всё, что Вы хотите узнать о погоде в Москве!

Хотите узнать прогноз погоды в Москве? Тогда Вам сюда: Погода в Москве

Поиск расширенной информации на нашем сайте:

Другие новости

Новости СМИ2

Главная страница сайта

Новости сайта

03.07.2017

Напоминаем, что на нашем специализированном сайте Метеоцентр.Азия вы можете получить высокодетализированные автоматические прогнозы погоды по пунктам России, СНГ и мира в авиационном формате (включающие направление и скорость ветра, видимость, явления погоды, количество и форму облачности, нижнюю и верхнюю границу облачности).


Погода в Москве - сегодня

Время (UTC), дата Ветер
(°,м/с) 
Видим.   Явления Облачность Т
(°С)
Тd
(°С)
f(%) Тe
(°С)
Pmin
(гПа)
dP
(гПа)
Po
(мм)
O2
(г/м3)
Тmin Tmax R s Состояние
почвы
09 15.05.18 320 (СЗ) 10 км    10/4 1000 м средняя 
[Cu Sc|Ac und]
+20.7 +11.1 54 +23  1020.1  -0.5  751  279           
21 15.05.18 тихо ()   н/о  дымка  ясно 
+13.1 +12.4 96 +18  1020.7  0.5  751  286           
00 16.05.18 тихо ()   н/о  дымка  ясно 
+11.6 +11.1 97 +14  1021  0.2  751  288           
09 16.05.18 230 (ЮЗ) 10 км    8/8 600 м 
[Cu Sc]
+21.7 +9.4 45 +22  1019.7  -0.5  751  279           
12 16.05.18 220 (ЮЗ) 10 км    8/6 600 м верхняя 
[Cu Sc|Ci fib]
+23.5 +7.3 35 +24  1018.1  -1.5  750  277           
15 16.05.18 170 (Ю) 10 км    8/3 600 м средняя 
[Cu hum|Ac trans]
+22.7 +7.2 37 +23  1016.9  -1.3  749  277           
21 16.05.18 тихо ()   н/о    10/10 600 м 
[Sc]
+17 +11.2 69 +20  1017.5  0.7  749  282           
00 17.05.18 тихо ()   н/о    8/8 600 м 
[Sc]
+14.6 +12.2 86 +19  1016.5  -1  748  284           
03 17.05.18 030 (СВ) 10 км  дымка  10/10 600 м 
[Sc]
+15.6 +12 79 +21  1016.5  -1  748  283  +14.4         
09 17.05.18 140 (ЮВ) 10 км    6/1 600 м средняя, верхняя 
[Cu med, cong|Ac trans|Cc]
+25.2 +10.4 39 +27  1014.9  -0.6  748  274           
12 17.05.18 160 (Ю) 10 км    9/6 600 м средняя, верхняя 
[Cu Sc|Ac trans|Ci fib]
+25.4 +9.3 36 +26  1013.4  -1.5  747  274           
15 17.05.18 160 (Ю) 10 км    8/6 600 м средняя 
[Cu Sc|Ac trans]
+25.2 +9.6 37 +26  1011.6  -1.8  745  273           
21 17.05.18 тихо ()   н/о    3/3 600 м 
[Sc]
+19.7 +13 65 +25  1010.9  -0.2  744  277           
00 18.05.18 тихо ()   н/о    ясно 
+15.8 +13.3 85 +22  1010.8  -0.3  744  281           
03 18.05.18 тихо ()   10 км  дымка  10/0 верхняя 
[Cs]
+16.5 +13.8 84 +23  1009.8  -1  743  280  +14.3         
09 18.05.18 170 (Ю) 10 км    9/8 600 м верхняя 
[Cu med, cong|Ci fib]
+24.7 +10.8 42 +27  1007.7  -0.8  742  272           
21 18.05.18 340 (С) н/о  слаб. ливневой дождь  10/10 600 м кучево-дожд. 
[Cb calv]
+15.2 +14.4 95 +25  1004.8  -0.5  740  279           
03 19.05.18 320 (СЗ) 4000 м  слаб. ливневой дождь  10/10 600 м кучево-дожд. 
[Cb calv]
+14 +13.3 96 +21  1003  -0.5  738  280  +14    12     
06 19.05.18 290 (З) 4000 м  слаб. ливневой дождь  10/10 300 м кучево-дожд. 
[Cb calv]
+14.2 +13.3 94 +21  1003.8  0.8  739  280  +13.7    14    мокрая 
09 19.05.18 290 (З) 4000 м  в посл. час ливневой дождь  9/9 600 м 
[Sc diur, vesp]
+16.2 +14.7 91 +27  1004.7  740  278           
15 19.05.18 330 (СЗ) 10 км    8/8 600 м 
[Cu Sc]
+16.6 +11.8 73 +21  1008  1.9  742  280         
21 19.05.18 320 (СЗ) н/о  слаб. ливневой дождь{морось}  10/10 300 м кучево-дожд. 
[Cb cap]
+11.4 +10.2 92 +14  1012.3  1.5  745  286           
03 20.05.18 тихо ()   4000 м  слаб. ливневой дождь  10/10 300 м кучево-дожд. 
[Cb cap]
+10 +9.1 94 +10  1014.7  1.2  747  289  +9.8       
06 20.05.18 020 (С) 4000 м  слаб. ливневой дождь  10/10 300 м кучево-дожд. 
[Cb cap]
+10.8 +9.7 93 +12  1016.6  1.9  748  288  +9.8    11    мокрая 
09 20.05.18 010 (С) 4000 м  слаб. ливневой дождь  10/10 300 м кучево-дожд. 
[Cb cap]
+10.3 +9.3 94 +10  1019.2  2.5  750  290           
Время (UTC), дата Ветер
(°,м/с) 
Видим.   Явления Облачность Т
(°С)
Тd
(°С)
f(%) Тe
(°С)
Pmin
(гПа)
dP
(гПа)
Po
(мм)
O2
(г/м3)
Тmin Tmax R s Состояние
почвы

Для получения пояснительной информации подведите курсор к названию столбца.

ПОГОДА в Москве - архив

Всё, что Вы хотите узнать о погоде в Москве - удобно и подробно!

Выберите нужную дату (начиная с 1 января 2015* года) и нажмите кнопку "Найти".
Будут отображены архивные сводки погоды по пункту Москва, начиная с указанной даты.


Отображать данные в формате CSV (для использования в таблицах Excel)


Внимание! Наш архив погоды предназначен исключительно для личного некоммерческого использования в познавательных целях. Если Вам необходимы официальные справки о состоянии погоды (для производственных, юридических, коммерческих и т.п. целей), обращайтесь в органы Росгидромета.

*Примечание: данная дата относится к архиву по метеостанциям СССР (Россия, СНГ, Балтия).
Архив по метеостанциям Зарубежной Европы и Азии (кроме Китая) хранится 10 дней, по другим регионам земного шара (Китай, Африка, Америка, Австралия, Океания) - 1 день.

Москва - район местоположения метеостанции


Название, широта, долгота, высота метеостанции:
Москва (ВВЦ) 55.8°ш. 37.6°д. 156 м над ур. моря [Российская Федерация]

Дополнительная информация

В oтличие oт бoльшинства пoгoдных сайтoв мы публикуем пoдрoбную метеoинфoрмацию в детальнoм прoфессиoнальнoм фoрмате.

Характеристики температуры и влажнoсти вoздуха измеряются на высoте 2 м в тени вдали oт зданий и деревьев.
Скoрoсть ветра измеряется на высoте 10 м (на урoвне рoста челoвека скoрoсть ветра ниже в 1.5-2 раза). Если метеoстанция нахoдится в гoрoде или в лесу, тo скoрoсть ветра занижена на 2-4 м/с пo сравнению с oткрытым местoм. Скoрoсть ветра над акватoриями крупных рек и oзёр, а также на вершинах хoлмoв на 2-5 м/с выше, чем в oбычных услoвиях.
Атмoсфернoе давление в разных тoчках местнoсти мoжет значительнo oтличаться oт давления на метеoстанции, в зависимoсти oт услoвий рельефа (при пoдъёме на 10 м давление пoнижается примернo на 1 мм рт.ст.).